Погода в Нью-Плимуте

Новая Зеландия     39°03′34″S   174°05′03″E
темп.,
°C
ветер,
м/с
пор.,
м/с
влажн.,
%
обл.,
%
осадки,
мм/ч
давл.,
гПа
погр.,
м
12 августа, пт
пт1200:00+9юв810650 0.0 1021577
03:00+8ююв68690 0.0 1021561
06:00+8ююв45714 0.0 1022356
09:00+9ююв35690 0.0 1023430
12:00+11ююз34535 0.0 1023988
15:00+12ююз455195 0.0 10211336
18:00+10ююз4571100 0.0 1023619
21:00+10ююз237691 0.1 1023361
13 августа, сб
сб1300:00+9юв22775 0.1 1024317
03:00+9юв227787 0.0 1024206
06:00+8вюв327898 0.0 1024208
09:00+8вюв227275 0.0 1026240
12:00+9ссз226717 0.0 1026381
15:00+11зюз67628 0.0 1025958
18:00+11ююз44671 0.0 1025596
21:00+9юв33702 0.0 1027210
14 августа, вс
вс1400:00+9ю22680 0.0 1028265
03:00+9ю12670 0.0 1028298
06:00+8в21730 0.0 1029202
09:00+8в22750 0.0 1030273
12:00+9ссв22740 0.0 1030317
15:00+10с22700 0.0 1028477
18:00+10с12700 0.0 1027527
21:00+11зсз23653 0.0 1028825
15 августа, пн
пн1500:00+11сз346416 0.0 10291038
03:00+11ссз446398 0.0 10281210
06:00+11ссв4565100 0.1 10271030
09:00+11св6776100 0.0 1028666
12:00+11св7778100 0.1 1028682
15:00+12св6874100 0.0 1026657
18:00+14ссв81180100 0.0 1026929
21:00+14св101379100 0.1 1026924
16 августа, вт
вт1600:00+14св111582100 0.1 1025993
03:00+14св111686100 0.0 1024949
06:00+14св121788100 0.1 1023956
09:00+14ссв131888100 1.2 1023989
12:00+14ссв131893100 4.0 1023962
15:00+14ссв131894100 4.7 10201001
18:00+15ссв131991100 10.3 1019850
21:00+15ссв121895100 11.1 1021876